User: anonymous
Location: Fort Wayne
(41.1310°N, 85.1290°W)
Time: 05:25:43
(UTC-04:00)
Language:

Cosmos 1953 - Orbit

View from above orbital plane
View from above orbital plane
View from above satellite
View from above satellite

Ground track
Ground track

The orbit data is extracted from the following two-line orbital elements,

1 19210U 88050A   14234.75802081  .00000960  00000-0  70956-4 0  4899
2 19210 082.5199 309.7764 0015639 162.4649 197.7119 15.02031159423080
Epoch (UTC): 22 August 2014 18:11:32
Eccentricity: 0.0015639
inclination: 82.5199°
perigee height: 550 km
apogee height: 571 km
right ascension of ascending node: 309.7764°
argument of perigee: 162.4649°
revolutions per day: 15.02031159
mean anomaly at epoch: 197.7119°
orbit number at epoch: 42308

The dashed part of the orbit path shows where the satellite is in the earth's shadow,  

DLR